Location: Fiennes
(50.8274°N, 1.8253°E)
Time: 00:06:26
(UTC+00:00)

Cosmos 1975 - Pass Details

Date: 15 May 2026
Orbit: 471 x 485 km, 82.5° (Epoch: 9 June)

Event Time Altitude Azimuth Distance (km) Brightness Sun altitude
Rises 23:27:49 0° 343° (NNW) 2,574 7.7 -20.0°
Reaches altitude 10° 23:30:02 10° 335° (NNW) 1,687 6.3 -20.0°
Maximum altitude 23:33:28 38° 267° (W) 763 3.5 -20.0°
Enters shadow 23:33:52 36° 250° (WSW) 783 3.4 -20.0°
